{"data":{"norad_id":45807,"epoch":"2026-09-20T00:20:23.924256Z","epoch_age_seconds":56386,"freshness":"FRESH","line1":"1 45807U 20040A   26263.01416579 -.00000357  00000+0  00000+0 0  9996","line2":"2 45807   2.6750  67.3931 0003019 293.7885 113.3511  1.00276977 23021","mean_motion":1.00276977,"eccentricity":0.0003019,"inclination_deg":2.675,"raan_deg":67.3931,"arg_perigee_deg":293.7885,"mean_anomaly_deg":113.3511,"bstar":0,"rev_number":2302,"period_min":1436.0225478277,"perigee_km":35772.410424736,"apogee_km":35797.868611098,"semimajor_km":42163.276517917,"source":"CELESTRAK","updated_at":"2026-09-20T09:00:46.839458Z"}}